カタログに戻る

RASSVET-2 NO. 1

運用中通信SSO
NORAD 59779·PAYLOAD·🇷🇺 Russia
この衛星名は、まだ公式ソースで確認されていません。

打ち上げ May 16, 2024 から Plesetsk Cosmodrome

Loading…

次のパス (今後24時間)

TLE

最新Source: Space-Track

元期: Sep 14, 2026, 14:24 UTC

1 59779U 24092G   26257.60029938  .00000100  00000-0  54187-4 0  9993
2 59779  98.6797  16.5887 0010983 308.8453  51.1750 14.31871210121698

AllMySatでRASSVET-2 NO. 1をリアルタイム追跡

Download on the App Store